Regional Weather Roundup
Issued by NWS Grand Forks, ND

Home | Current Version | Previous Version | Text Only | Print | Product List | Glossary Off
Versions: 1 2 3 4 5 6 7 8 9 10 11 12 13 14 15 16 17 18 19 20 21 22 23 24 25 26 27 28 29 30 31 32 33 34 35 36 37 38 39 40 41 42 43 44 45 46 47 48 49 50

000
ASUS43 KFGF 271931
RWRFGF
PRAIRIE TO PINES  WEATHER ROUNDUP
NATIONAL WEATHER SERVICE EASTERN NORTH DAKOTA/GRAND FORKS ND
200 PM CDT MON MAR 27 2017

 **SATELLITE DATA USED TO AUGMENT SKY COVER AT AUTOMATED STATIONS**
 *****  WEATHER ACROSS EASTERN NORTH DAKOTA  *****

CITY           SKY/WX    TMP DP  RH WIND       PRES   REMARKS
GRAND FORKS    CLOUDY    42  40  92 SE10      29.98F FOG
GRAND FRKS AFB CLOUDY    41  41 100 CALM      30.00R
DEVILS LAKE    FAIR      50  41  71 SE7       29.95F
FARGO          FAIR      53  42  66 VRB5      29.97F
WAHPETON ARPT    N/A     52  37  58 S6        29.98S
$$

 ***** WEATHER ACROSS CENTRAL AND WESTERN NORTH DAKOTA  *****

CITY           SKY/WX    TMP DP  RH WIND       PRES   REMARKS
BISMARCK       FAIR      63  37  38 NW6       29.92F
MINOT          FAIR      46  39  76 N10       29.93F
JAMESTOWN      FAIR      57  39  51 S7        29.95S
MINOT AFB      PTSUNNY   39  37  93 N10       29.94S
GARRISON         N/A     54  40  59 SE6       29.91S
WILLISTON      PTSUNNY   54  26  34 E9        29.92S
DICKINSON      FAIR      58  29  33 VRB6      29.87F
HETTINGER      FAIR      58  33  39 S10       29.89F
$$

 *****  OTHER AIRPORT OBSERVATIONS IN OUR AREA  *****

CITY           SKY/WX    TMP DP  RH WIND       PRES   REMARKS
WALHALLA       NOT AVBL
GRAFTON AIRPOR CLOUDY    37  37 100 CALM      30.03F
VALLEY CITY AR FAIR      54  45  71 SE7       29.98F
CANDO          NOT AVBL
CAVALIER APRT  FOG       36  36 100 CALM      30.02R VSB 1
GWINNER        CLEAR     57  37  47 MISG      29.96F
SHEYENNE NWR     N/A     57  39  51 E2        29.95S
ROLLA          FOG       34  34 100 NE7       29.97F VSB<1/4
 ***** THE ABOVE OBSERVATIONS ARE NON NWS ARE NOT QUALITY
       CONTROLLED AND MAY MIS-REPORT RAIN FOR SNOW...
$$

  *****  WEATHER ACROSS NORTHERN MINNESOTA  *****

CITY           SKY/WX    TMP DP  RH WIND       PRES   REMARKS
FLAG ISLAND    FAIR      37  30  75 S7        29.99F
WARROAD        FAIR      45  37  76 E6        29.99F
ROSEAU         FAIR      52  41  66 SE5       29.98F
HALLOCK        CLOUDY    36  36 100 N7        30.02F FOG
THF RVR FALLS    N/A    N/A N/A N/A VRB3      30.00F
BAUDETTE       FAIR      50  34  54 VRB3      29.99S
WASKISH        FAIR      50  37  62 W9        29.98F
CROOKSTON      CLOUDY    43  43 100 CALM      30.00F
STEPHEN NDAWN    N/A     37  37 100 NW3         N/A
GREENBUSH NDAW   N/A     46  39  76 SW2         N/A
$$
  *****  WEATHER ACROSS CENTRAL AND WEST MINNESOTA  *****

CITY           SKY/WX    TMP DP  RH WIND       PRES   REMARKS
FOSSTON        FAIR      55  54  94 E7        29.97F
BEMIDJI        FAIR      53  33  46 SE7       29.97S
PARK RAPIDS    FAIR      54  34  46 CALM      29.95F
ELBOW LAKE     FAIR      52  37  56 NE5       29.97F
WADENA         FAIR      55  36  47 SE6       29.95F
DETROIT LAKES  FAIR      54  34  47 NW5       29.97F
MOORHEAD       FAIR      54  43  66 CALM      29.98F
FERGUS FALLS   FAIR      55  37  50 SW3       30.00S
MORRIS MN      FAIR      55  36  47 E5        29.96F
STAPLES        FAIR      54  34  47 CALM      29.96F
$$
  *****  WEATHER ELSEWHERE ACROSS MINNESOTA  *****

CITY           SKY/WX    TMP DP  RH WIND       PRES   REMARKS
DULUTH         CLOUDY    48  35  60 N7        29.97R
INTRNTL FALLS  FAIR      52  31  44 CALM      29.98F
ELY            FAIR      48  27  43 NE6       29.97S
CLOQUET        FAIR      48  34  57 NE3       29.97S
WHEATON        FAIR      54  36  50 CALM      29.99S
BRAINERD       FAIR      52  33  48 VRB6      29.97F
HIBBING        FAIR      50  34  54 CALM      29.96F
ALEXANDRIA     FAIR      52  34  50 VRB3      29.97F
SAINT CLOUD    PTSUNNY   53  37  54 VRB3      29.97F
MINNEAPOLIS    FAIR      55  33  43 VRB5      29.96F
$$

  *****  WEATHER ACROSS SOUTH DAKOTA  *****

CITY           SKY/WX    TMP DP  RH WIND       PRES   REMARKS
SIOUX FALLS    FAIR      57  38  48 NE7       29.95F
BROOKINGS      FAIR      54  34  46 VRB3      29.94F
WATERTOWN      PTSUNNY   54  35  48 VRB3      29.95F
HURON          FAIR      57  35  43 E6        29.94F
SISSETON         N/A     53  40  61 SE7       29.96F
ABERDEEN       FAIR      58  33  39 VRB5      29.95F
MITCHELL       FAIR      57  36  45 VRB5      29.95F
PIERRE         FAIR      57  34  41 SE12      29.91F
MOBRIDGE       FAIR      60  34  37 S9        29.90F
RAPID CITY     PTSUNNY   49  42  77 VRB5      29.87F
$$

  *****  SOME WEATHER IN NEARBY STATES *****

CITY           SKY/WX    TMP DP  RH WIND       PRES   REMARKS
GLASGOW MT     CLOUDY    51  29  42 NE10      29.86F
GREAT FALLS MT PTSUNNY   53  25  33 W8        29.83S
CHEYENNE WY    CLOUDY    52  26  36 S8        29.89F
SCOTTSBLUFF NE PTSUNNY   63  26  24 W12G22    29.84F
OMAHA NE       CLOUDY    50  39  66 N7        29.98F
DES MOINES IA  CLOUDY    49  42  77 N8        29.96S
DAVENPORT IA   LGT RAIN  50  45  83 CALM      29.92F
CHICAGO IL     CLOUDY    49  43  80 E6        29.93S
EAU CLAIRE WI  CLOUDY    43  36  76 N6        29.96S
LA CROSSE WI   CLOUDY    49  41  74 NW7       29.95F
$$

  *****  SOME NATIONAL WEATHER *****

CITY           SKY/WX    TMP DP  RH WIND       PRES   REMARKS
LA GUARDIA NY  CLOUDY    47  42  83 E8        30.02F
RALEIGH NC     PTSUNNY   75  59  57 SW10      30.05F
ATLANTA GA     PTSUNNY   74  59  59 S8        30.03F
NEW ORLEANS LA FAIR      80  69  69 S18G25    29.98F
OKLAHOMA CITY  FAIR      64  48  56 N9        29.94F
ALBUQUERQUE NM FAIR      62  18  18 S7        29.95F
SALT LAKE CITY RAIN      43  39  86 NE8       29.88F
LOS ANGELES CA FAIR      65  54  67 W16       30.03S
BOISE ID       FAIR      50  34  54 W17       30.02R
SEATTLE WA     PTSUNNY   51  42  71 SW14      30.11R
$$

*** WEATHER ACROSS MANITOBA...SASKATCHEWAN AND ONTARIO ***
                ***ONTARIO***

CITY           SKY/WX    TMP DP  RH WIND       PRES   REMARKS
GERALDTON      PTSUNNY   46  27  46 N8        29.92S
THUNDER BAY    CLOUDY    50  34  53 S5        29.96S
SIOUX LOOKOUT  PTSUNNY   46  21  36 NW8       29.98F
TORONTO        PTSUNNY   59  52  77 VRB2      29.86S
BIG TROUT LK   CLOUDY    25  16  68 NW14G20   30.05R WCI  13
PICKLE LAKE    PTSUNNY   41  21  45 NW5       29.98S
DRYDEN         SUNNY     48  25  40 N6        29.98F
KENORA         PTSUNNY   46  30  53 SE3       30.00S
$$
                *** MANITOBA***

CITY           SKY/WX    TMP DP  RH WIND       PRES   REMARKS
BRANDON        PTSUNNY   41  32  70 E16       30.01S
DAUPHIN        CLOUDY    34  30  86 NE10      30.09S
ISLAND LAKE    CLOUDY    27  16  63 NW9       30.13  WCI  17
PILOT MOUND      N/A     39  36  87 SE9         N/A
THE PAS        PTSUNNY   28  18  64 N7        30.18S WCI  21
THOMPSON       MOSUNNY   21  14  73 NE8       30.21R WCI  12
WINNIPEG       PTSUNNY   37  30  75 NE12      30.05S
LYNN LAKE      SUNNY     23   1  39 SE10      30.20S WCI  12
CHURCHILL      CRYSTALS   9   5  85 N14       30.27R WCI  -8
GILLAM         FLURRIES  23  12  63 N12       30.19R WCI  12
$$
                ***SASKATCHEWAN***

CITY           SKY/WX    TMP DP  RH WIND       PRES   REMARKS
ESTEVAN        CLOUDY    39  37  93 E8        29.97R FOG
KINDERSLEY     CLOUDY    37  34  87 SE13      29.90S
LLOYDMINSTER   CLOUDY    30  30 100 SE15      29.92R WCI  19
PRINCE ALBERT  CLOUDY    37  25  60 E12       30.06S
REGINA         CLOUDY    39  34  81 E8        29.97S
YORKTON        CLOUDY    37  34  87 E10       30.03R
N. BATTLEFORD  CLOUDY    34  34 100 SE20      29.99S WCI  22
LA RONGE       MOSUNNY   30  23  74 NE14      30.12F WCI  20
SASKATOON      CLOUDY    39  32  75 E13       30.00
SWIFT CURRENT  SUNNY     48  32  53 E10       29.88S
$$
NOTE: THESE ARE AUTOMATED STATIONS WITH LIMITED QUALITY CONTROL
      "FAIR" INDICATES FEW OR NO CLOUDS BELOW 12,000 FEET WITH NO
      SIGNIFICANT WEATHER AND/OR OBSTRUCTIONS TO VISIBILITY.
      SKY/WX - SKY CONDITION AND SIGNIFICANT WEATHER.
      TMP - AIR TEMPERATURE.    DP   - DEWPOINT TEMPERATURE.
      RH  - RELATIVE HUMIDITY.  PRES - PRESSURE.
      HX  - HEAT INDEX.         WCI  - WIND CHILL INDEX.
$




USA.gov is the U.S. government's official web portal to all federal, state and local government web resources and services.